Location: Most
(50.5133°N, 13.6207°E)
Time: 19:02:28
(UTC+02:00)

ISS - Pass Details

Date: 16 May 2019
Orbit: 407 x 410 km, 51.6° (Epoch: 23 May)

Event Time Altitude Azimuth Distance (km) Brightness Sun altitude
Exits shadow 01:29:15 79° 335° (NNW) 422 -3.8 -20.2°
Maximum altitude 01:29:17 79° 350° (N) 422 -3.8 -20.2°
Drops below altitude 10° 01:32:37 10° 78° (ENE) 1,478 -0.8 -20.2°
Sets 01:34:42 0° 80° (E) 2,341 0.3 -20.1°
